Simultaneous Nadir Overpasses (SNOs) Predictions

Prediction of SNOs between METOP-B and TERRA Satellite Orbit:

Table of predicted SNOs for the next 14.0 days since TLE Epoch: 4/20/2024
Index Date (METOP-B) Time (METOP-B) Lat,Lon (METOP-B) SZA (METOP-B ) Date (TERRA) Time (TERRA) Lat,Lon (TERRA) SZA (TERRA ) Distance(km) Time Diff (sec)
1 04/22/2024 01:24:13 -80.26, 1.48 111.30 04/22/2024 01:24:42 -80.26, 1.43 111.30 1.01 29
2 04/22/2024 02:14:49 80.39, 170.29 68.91 04/22/2024 02:14:00 80.38, 170.19 68.88 1.89 49
3 04/24/2024 15:54:31 -80.15, 142.67 112.34 04/24/2024 15:55:43 -80.16, 142.82 112.30 3.19 72
4 04/24/2024 16:45:07 80.28, -48.58 67.87 04/24/2024 16:45:01 80.28, -48.48 67.87 2.06 6
5 04/27/2024 07:15:23 80.23, 93.37 66.97 04/27/2024 07:16:00 80.23, 93.27 66.96 2.04 37
6 04/27/2024 08:05:59 -80.37, -97.75 112.82 04/27/2024 08:05:17 -80.37, -97.82 112.84 1.22 42
7 04/29/2024 22:36:16 -80.29, 43.76 113.76 04/29/2024 22:36:15 -80.29, 43.76 113.75 0.32 1
8 05/02/2024 13:06:33 -80.20,-174.84 114.69 05/02/2024 13:07:12 -80.20,-174.84 114.68 0.19 39



Historial Predications of SNOs between METOP-B and TERRA
